sat.trackr.live / text

‹ back to catalog

STARLINK-35247

NORAD 65622 · 2025-210A

PAYLOAD ACTIVE UNKNOWN

§ Identity

Operator
Country
US
Launch date
2025-09-18
Launch site
AFETR
Launch vehicle
Mass (kg)
RCS (m²)

Purposes: comms

External: N2YO · Heavens-Above · Gunter

§ Orbital elements

Epoch: 2026-09-20T08:17:51.555840Z

Period
93.85 min
Inclination
53.1599°
Eccentricity
0.0001100
Mean motion
15.34406720 rev/d
Perigee alt
461.9 km
Apogee alt
463.4 km
Semi-major
6,840.8 km
B*
6.8148e-4
RAAN
122.2319°
Arg perigee
82.9036°
Mean anomaly
277.2092°
Rev number
5,754

§ Raw data

STARLINK-352471 65622U 25210A   26263.34573560  .00022723  00000+0  68148-3 0  99982 65622  53.1599 122.2319 0001100  82.9036 277.2092 15.34406720 57547

JSON: /api/v1/satellites/65622 · /tle

For live sub-satellite position, see the globe view (requires WebGL).

§ Visibility from observer

Set your observer location to see the next 7 days of passes ≥ 10°. The values pass through the URL so the page stays shareable.

No JS? Fill the form by hand. The geolocation button needs JavaScript.